Temperature
-2 -2 -2 -2 -2 -2 -2 -2 -2 -2 -2 -2 -2 -2 -2 -1 -1 -1 -1 -1 -1 -1 -1 -0 -0 -0 -0 0 0 1 1 1 1 2 2 3 3 3 3 3 3 4 4
-2 -3 -3 -3 -3 -3 -3 -3 -3 -3 -3 -3 -3 -2 -2 -2 -2 -2 -2 -2 -2 -1 -1 -1 -1 -1 -0 -0 -0 -0 0 0 1 1 2 2 2 2 3 3 3 3 3
-3 -3 -3 -3 -3 -3 -3 -3 -3 -3 -3 -3 -3 -3 -3 -3 -3 -3 -3 -3 -2 -2 -2 -2 -1 -1 -1 -1 -1 -1 -0 -0 0 0 1 1 2 2 2 2 2 2 2
-4 -4 -4 -4 -4 -4 -4 -4 -4 -4 -4 -4 -4 -4 -4 -3 -3 -3 -3 -3 -3 -3 -3 -2 -2 -2 -2 -1 -1 -1 -1 -1 -0 0 0 1 1 1 1 2 2 2 2
-4 -4 -4 -5 -5 -5 -5 -5 -5 -5 -5 -5 -4 -4 -4 -4 -4 -4 -4 -4 -4 -3 -3 -3 -2 -2 -2 -2 -2 -1 -1 -1 -1 -0 -0 0 0 1 1 1 1 1 1
-5 -5 -5 -5 -5 -5 -5 -5 -5 -5 -5 -5 -5 -5 -5 -5 -5 -5 -5 -5 -4 -4 -4 -3 -3 -2 -2 -2 -2 -2 -1 -1 -1 -1 -1 -0 0 0 0 1 1 0 0
-5 -6 -6 -6 -6 -6 -6 -6 -6 -6 -6 -6 -6 -6 -5 -5 -5 -5 -5 -5 -5 -4 -4 -4 -4 -3 -3 -2 -2 -2 -2 -2 -2 -1 -1 -0 -0 -0 0 0 0 0 0
-6 -6 -6 -6 -6 -6 -6 -6 -6 -6 -6 -6 -6 -6 -6 -6 -6 -6 -6 -5 -5 -5 -5 -5 -4 -4 -3 -3 -3 -2 -2 -2 -2 -2 -1 -1 -1 -1 -1 -0 -0 -0 -0
-6 -7 -7 -7 -7 -7 -7 -7 -7 -7 -7 -7 -7 -7 -7 -6 -6 -6 -6 -6 -6 -5 -5 -5 -5 -4 -4 -4 -4 -3 -3 -2 -2 -2 -2 -2 -1 -1 -1 -1 -1 -1 -1
-7 -7 -7 -7 -7 -7 -7 -7 -7 -8 -7 -7 -7 -7 -7 -7 -6 -6 -6 -6 -6 -6 -5 -5 -5 -5 -5 -4 -4 -4 -3 -3 -3 -3 -2 -2 -2 -2 -2 -1 -1 -1 -1
-7 -8 -8 -8 -8 -8 -8 -8 -8 -8 -8 -8 -8 -8 -7 -7 -7 -7 -7 -7 -7 -6 -6 -6 -5 -5 -5 -5 -5 -4 -4 -4 -3 -3 -3 -3 -2 -2 -2 -2 -2 -2 -2
-8 -8 -8 -8 -8 -8 -8 -8 -8 -8 -8 -8 -8 -8 -8 -8 -8 -7 -7 -7 -7 -7 -7 -6 -6 -6 -6 -5 -5 -5 -5 -4 -4 -4 -3 -3 -3 -3 -3 -3 -3 -2 -2
-8 -8 -8 -8 -8 -8 -8 -8 -8 -9 -9 -9 -9 -9 -8 -8 -8 -8 -8 -8 -7 -7 -7 -7 -7 -6 -6 -6 -6 -6 -5 -5 -5 -4 -4 -4 -4 -4 -3 -3 -3 -3 -3
-9 -9 -9 -9 -9 -9 -9 -9 -9 -9 -9 -9 -9 -9 -9 -9 -8 -8 -8 -8 -8 -8 -8 -7 -7 -7 -7 -7 -6 -6 -6 -6 -5 -5 -5 -5 -4 -4 -4 -4 -4 -4 -4
-9 -9 -9 -9 -9 -9 -9 -9 -9 -9 -10 -10 -10 -10 -10 -9 -9 -9 -9 -9 -8 -8 -8 -8 -8 -8 -7 -7 -7 -7 -7 -6 -6 -6 -6 -5 -5 -5 -5 -5 -5 -5 -4
-10 -10 -10 -10 -10 -10 -10 -9 -10 -10 -10 -10 -10 -10 -10 -10 -10 -9 -9 -9 -9 -9 -9 -8 -8 -8 -8 -8 -8 -7 -7 -7 -7 -7 -6 -6 -6 -6 -5 -5 -5 -5 -5
-10 -10 -10 -10 -10 -10 -10 -10 -10 -10 -10 -10 -10 -10 -10 -10 -10 -10 -10 -9 -9 -9 -9 -9 -9 -9 -9 -9 -8 -8 -8 -8 -8 -7 -7 -7 -6 -6 -6 -6 -6 -6 -6
-10 -11 -11 -11 -11 -11 -11 -11 -11 -11 -11 -10 -10 -10 -10 -10 -10 -10 -10 -10 -10 -9 -10 -10 -10 -9 -9 -9 -9 -9 -9 -8 -8 -8 -8 -7 -7 -7 -6 -6 -6 -6 -6
-11 -11 -11 -11 -11 -11 -11 -11 -11 -11 -11 -11 -11 -11 -11 -11 -11 -11 -11 -10 -10 -10 -10 -10 -10 -10 -10 -10 -9 -9 -9 -9 -8 -8 -8 -7 -7 -7 -7 -7 -7 -7 -7
-11 -11 -11 -11 -11 -12 -12 -12 -12 -12 -12 -12 -12 -12 -11 -11 -11 -11 -11 -11 -11 -11 -11 -10 -10 -10 -10 -10 -10 -10 -9 -9 -9 -8 -8 -8 -7 -7 -7 -7 -7 -7 -7
-11 -11 -12 -12 -12 -12 -12 -12 -12 -12 -12 -12 -12 -12 -12 -12 -12 -12 -12 -12 -11 -11 -11 -11 -11 -11 -11 -10 -10 -10 -10 -9 -9 -9 -9 -8 -8 -8 -8 -8 -8 -8 -8
-12 -12 -12 -12 -12 -12 -12 -13 -13 -13 -13 -13 -12 -12 -12 -12 -12 -12 -12 -12 -12 -12 -11 -11 -11 -11 -11 -11 -11 -10 -10 -10 -9 -9 -9 -9 -9 -8 -8 -8 -8 -8 -8
-12 -12 -13 -13 -13 -13 -13 -13 -13 -13 -13 -13 -13 -13 -13 -13 -12 -12 -12 -12 -12 -12 -12 -12 -11 -11 -11 -11 -11 -11 -10 -10 -10 -9 -9 -9 -9 -9 -8 -8 -8 -8 -8
-13 -13 -13 -13 -13 -13 -13 -13 -13 -13 -13 -13 -13 -13 -13 -13 -13 -13 -13 -12 -12 -12 -12 -12 -12 -11 -11 -11 -11 -11 -10 -10 -10 -10 -9 -9 -9 -9 -9 -9 -8 -8 -8
-13 -13 -13 -13 -13 -13 -13 -13 -13 -13 -13 -13 -13 -13 -13 -13 -13 -13 -13 -13 -13 -12 -12 -12 -12 -12 -11 -11 -11 -11 -10 -10 -10 -10 -10 -9 -9 -9 -9 -9 -9 -9 -9
-13 -14 -14 -14 -14 -14 -13 -13 -13 -13 -13 -13 -13 -13 -13 -13 -13 -13 -13 -13 -13 -13 -12 -12 -12 -12 -12 -11 -11 -11 -10 -10 -10 -10 -10 -9 -9 -9 -9 -9 -9 -9 -9
Wind_Speed
4 4 4 5 5 5 5 6 6 7 7 7 7 7 7 7 6 5 5 6 6 6 6 6 7 6 5 4 4 5 5 4 6 4 3 2 3 4 3 5 6 6 7
4 4 5 5 5 5 6 6 7 7 7 7 7 7 7 7 6 6 6 6 6 6 6 6 6 5 5 5 5 6 5 4 5 6 4 3 3 4 4 4 3 4 5
4 4 5 5 6 6 7 7 7 7 7 7 7 7 7 7 7 7 6 6 6 6 6 6 6 6 6 5 5 6 5 4 4 4 4 3 2 2 2 2 1 2 3
4 5 5 6 6 7 7 7 7 7 7 7 7 7 8 8 7 7 6 6 6 6 6 6 6 7 7 6 6 6 6 5 4 4 4 3 2 2 3 3 2 2 2
4 5 6 6 6 7 7 7 7 7 7 7 7 7 7 7 6 7 6 6 5 5 6 6 6 7 8 7 6 6 5 4 4 4 4 3 3 4 4 3 3 2 2
4 6 6 7 7 7 7 7 7 7 7 7 7 7 7 7 10 11 9 5 5 5 5 6 6 7 8 10 10 10 8 6 6 5 5 6 5 4 3 4 4 3 3
5 6 6 6 7 8 8 7 7 7 7 7 7 7 8 9 12 12 11 6 5 5 5 5 5 6 6 5 7 8 9 11 10 7 7 7 6 6 5 5 5 5 4
5 6 6 7 8 8 7 7 7 7 7 7 7 7 7 9 13 12 11 6 5 5 5 5 6 5 6 5 5 5 5 6 7 7 7 7 6 6 7 7 6 3 1
6 6 7 7 8 8 8 8 7 7 7 7 7 7 7 9 13 12 10 5 4 5 5 5 5 5 8 8 5 5 5 5 6 7 7 7 8 8 6 4 4 4 3
6 7 7 7 7 8 8 8 7 7 7 8 8 7 7 8 11 12 10 4 5 5 5 5 8 8 9 9 5 4 5 5 4 3 4 4 5 6 8 7 6 5 3
7 7 7 7 7 7 7 6 7 7 7 7 8 7 7 8 10 11 11 5 5 5 5 4 5 9 10 9 7 5 7 5 3 3 2 2 2 3 4 4 5 5 5
6 7 7 7 7 7 6 7 6 6 7 7 7 7 6 7 9 10 11 9 8 5 5 5 6 9 9 8 6 6 7 5 2 2 3 3 3 3 3 3 3 3 3
7 7 7 8 7 7 6 6 6 5 5 6 6 7 6 6 7 12 10 10 10 6 5 8 8 8 7 5 6 6 4 3 2 3 3 3 3 3 2 2 1 1 1
7 7 7 7 7 6 6 5 5 5 6 6 6 7 7 6 6 6 5 6 8 7 6 6 7 6 4 4 4 4 3 2 2 3 3 2 1 2 2 2 2 2 1
7 7 7 7 7 6 6 5 6 5 6 7 6 6 6 7 8 11 8 6 5 5 4 2 2 2 2 2 2 2 2 2 2 2 2 2 2 2 1 1 2 1 2
6 6 6 6 6 6 6 7 9 9 12 11 10 9 8 10 13 12 11 10 9 7 3 2 2 2 3 3 2 3 3 2 2 2 2 2 2 2 2 1 1 2 3
6 6 6 6 6 6 6 7 8 9 11 11 11 12 11 13 13 12 11 9 8 5 2 2 3 3 3 3 3 3 3 3 2 2 2 2 2 2 2 2 2 2 2
6 7 7 6 6 6 6 6 6 7 8 7 9 12 13 13 12 11 10 7 5 4 3 3 3 3 3 3 3 3 3 3 3 3 3 3 3 3 3 3 3 3 3
6 5 5 5 5 5 6 6 6 6 6 7 7 9 12 12 11 10 8 4 4 4 3 3 3 3 4 4 4 3 4 4 3 3 3 3 3 3 3 3 4 5 4
5 9 8 6 5 5 5 5 6 6 6 6 7 7 8 8 6 6 5 4 4 4 4 4 4 4 4 4 4 4 4 4 4 4 3 3 3 3 4 4 4 4 4
5 7 9 7 5 5 5 6 6 6 6 6 6 8 10 6 5 6 5 5 5 5 5 4 4 4 4 4 4 4 5 4 4 4 4 3 3 3 4 4 4 4 3
4 5 5 5 5 5 6 5 5 6 6 7 7 8 11 6 5 5 5 5 5 5 5 4 4 4 4 4 4 5 5 5 5 4 4 4 4 4 4 4 4 4 4
4 5 5 5 5 7 7 5 5 6 6 6 7 7 6 6 6 6 6 6 6 6 6 5 5 5 5 6 5 5 5 6 5 5 5 5 5 5 5 5 5 5 5
4 4 5 5 5 5 5 6 6 6 6 6 6 6 6 6 6 7 6 6 6 6 6 6 6 7 8 7 7 7 7 8 8 7 7 6 6 5 5 5 6 6 6
4 4 5 5 5 6 6 6 6 6 6 6 6 6 6 6 6 6 6 6 7 7 7 8 7 7 9 10 9 9 10 11 10 8 7 6 7 7 6 6 6 6 6
4 4 5 5 5 5 6 6 6 7 6 7 6 6 6 7 7 7 6 6 6 7 7 7 9 10 11 10 10 11 12 12 11 10 7 5 6 6 6 6 7 7 7
Wind_Direction
302 301 304 303 304 304 303 302 304 305 308 309 310 310 310 306 301 290 284 279 271 268 263 256 253 245 239 245 245 242 240 236 250 265 260 262 230 219 223 224 229 221 218
297 298 298 300 302 304 303 301 303 303 304 306 306 307 306 306 302 289 286 285 279 274 265 260 261 255 247 243 242 241 240 237 240 254 260 251 239 220 203 207 221 221 219
297 297 298 300 302 303 302 302 303 302 304 306 307 306 303 301 300 294 285 280 276 274 270 259 259 254 253 254 249 242 239 243 240 237 247 253 250 216 196 230 216 211 228
304 302 298 297 298 300 301 301 301 302 302 304 305 303 302 300 297 295 291 284 278 277 275 268 259 249 244 242 247 246 239 233 233 228 238 244 240 211 188 207 225 222 235
304 303 301 302 302 303 305 304 303 303 304 303 304 303 303 299 294 294 288 286 280 281 279 279 270 257 254 246 243 238 235 230 225 226 230 240 232 207 206 204 218 212 241
301 300 304 307 309 308 308 307 307 306 305 304 303 301 300 299 300 302 300 286 282 280 286 289 284 267 264 261 253 245 237 234 229 227 235 230 230 225 207 201 204 208 238
302 304 307 309 311 310 311 311 307 305 305 304 301 298 296 297 302 301 301 296 286 283 284 288 292 288 280 269 263 254 247 249 242 236 233 233 225 219 207 211 215 221 231
305 307 310 311 310 310 310 310 308 305 304 301 300 297 296 300 306 303 302 294 285 282 280 278 280 292 288 277 268 261 253 254 249 244 236 237 238 219 215 217 217 224 235
308 310 311 311 309 310 311 308 308 306 304 300 301 299 297 301 306 307 306 295 289 284 281 279 279 278 287 286 275 267 266 267 263 252 253 245 239 236 221 200 194 202 232
308 308 308 307 305 304 303 304 305 305 303 306 306 302 296 296 304 307 307 298 294 293 288 279 277 279 283 287 276 263 266 270 268 267 263 252 238 229 221 209 199 204 217
311 309 308 307 303 298 299 302 305 307 309 307 304 303 297 298 306 308 306 305 294 293 290 288 281 282 281 284 278 265 269 273 268 255 256 250 238 229 216 217 213 207 212
312 309 308 308 306 308 305 305 307 308 309 307 306 305 301 300 305 306 306 307 305 294 291 291 288 292 292 293 289 279 277 276 260 253 248 246 243 241 222 212 221 230 233
313 310 308 308 308 310 307 305 306 305 304 306 307 308 310 310 308 309 309 310 306 304 292 293 298 302 305 300 299 299 295 274 257 252 250 257 256 238 198 177 151 127 82
310 309 309 310 310 312 310 307 304 302 301 303 305 306 308 310 309 311 310 306 305 303 297 293 297 301 306 305 309 314 303 280 265 261 263 265 251 220 203 188 189 169 169
308 308 310 310 307 309 308 300 300 289 296 302 300 300 305 305 306 311 313 310 308 300 306 298 302 307 311 313 315 313 307 298 285 276 261 250 227 221 217 191 186 199 211
311 313 312 310 309 310 310 311 310 311 312 314 311 307 303 302 308 312 312 313 313 313 316 306 301 297 294 297 297 301 300 293 284 270 256 254 229 218 215 205 196 192 198
304 307 308 311 310 310 312 314 315 320 321 322 322 321 317 318 316 314 315 317 315 319 320 307 299 296 296 298 298 292 288 287 285 274 263 256 235 224 212 203 198 193 200
306 307 310 305 304 304 307 309 310 315 320 321 325 328 326 325 325 325 327 330 326 327 318 306 302 300 299 295 293 293 292 287 281 275 269 256 235 224 215 206 203 201 204
310 309 307 305 305 306 307 308 309 311 313 316 322 327 330 330 330 330 332 331 320 313 310 305 301 299 295 292 288 284 283 277 268 264 259 252 238 225 218 210 209 211 209
311 316 320 317 317 318 317 315 315 315 316 318 320 321 324 327 330 331 332 325 317 310 306 301 298 295 291 287 286 282 278 276 264 254 251 247 240 231 221 214 211 210 214
312 315 322 322 317 316 315 315 315 315 315 315 316 320 327 328 326 327 328 324 318 313 310 303 298 295 292 289 284 278 272 272 266 254 249 246 237 237 232 219 213 211 212
312 312 315 315 315 318 317 315 315 316 316 314 314 318 326 329 324 320 319 317 315 312 308 301 293 291 287 284 281 279 275 271 267 257 250 246 239 236 229 215 209 209 210
311 314 318 319 318 320 322 319 316 314 313 314 316 318 320 320 318 316 314 314 314 312 312 308 300 295 295 288 280 273 269 267 264 255 247 244 238 233 227 217 212 212 216
318 319 319 319 318 317 316 317 316 315 314 314 315 316 316 314 313 312 312 312 311 310 309 307 302 299 299 296 288 280 273 271 266 253 240 232 230 231 225 220 219 217 216
330 323 319 317 316 316 316 315 315 314 315 315 315 315 315 314 312 311 311 310 311 310 310 308 305 303 301 299 295 290 289 287 280 261 238 228 225 225 222 219 218 215 214
325 320 317 315 315 315 315 314 314 314 313 313 312 312 311 311 310 309 309 310 311 310 309 308 306 305 304 300 297 299 300 296 288 276 257 233 224 222 217 216 212 211 209
Height
1503 1502 1500 1498 1497 1494 1492 1490 1488 1486 1484 1481 1479 1477 1475 1474 1473 1471 1470 1469 1469 1468 1468 1468 1469 1470 1471 1472 1473 1474 1476 1477 1476 1476 1478 1479 1481 1482 1484 1486 1488 1490 1491
1499 1498 1496 1494 1492 1490 1488 1486 1484 1482 1479 1477 1475 1472 1470 1469 1467 1466 1464 1463 1462 1462 1462 1462 1463 1463 1464 1465 1467 1468 1469 1470 1471 1471 1472 1474 1475 1477 1478 1481 1482 1484 1486
1495 1494 1492 1490 1488 1485 1483 1481 1479 1477 1475 1472 1470 1467 1465 1463 1462 1460 1459 1458 1457 1457 1457 1457 1457 1457 1458 1459 1460 1462 1463 1464 1465 1467 1467 1469 1470 1472 1473 1475 1477 1479 1481
1491 1489 1487 1486 1483 1481 1479 1477 1474 1472 1470 1467 1465 1462 1460 1458 1457 1455 1454 1453 1452 1452 1452 1451 1451 1451 1452 1454 1455 1456 1457 1458 1460 1461 1462 1463 1465 1466 1468 1470 1471 1473 1475
1487 1485 1483 1481 1479 1476 1474 1472 1470 1467 1465 1462 1460 1457 1456 1454 1452 1451 1449 1448 1447 1447 1446 1446 1445 1446 1447 1448 1449 1450 1452 1453 1454 1455 1456 1457 1459 1460 1462 1464 1466 1468 1470
1483 1481 1479 1477 1475 1472 1470 1467 1465 1462 1460 1458 1455 1453 1451 1449 1448 1447 1446 1444 1443 1442 1441 1440 1440 1441 1441 1442 1444 1445 1446 1447 1448 1449 1450 1451 1452 1455 1456 1459 1461 1462 1463
1479 1477 1475 1473 1470 1468 1466 1463 1460 1458 1455 1453 1451 1448 1446 1445 1443 1442 1441 1440 1439 1437 1437 1436 1436 1436 1436 1437 1438 1439 1440 1442 1443 1444 1444 1445 1447 1449 1451 1453 1455 1457 1458
1476 1474 1471 1469 1466 1464 1461 1458 1456 1453 1451 1448 1446 1444 1442 1440 1439 1438 1436 1435 1434 1433 1432 1432 1431 1431 1432 1432 1433 1433 1434 1435 1437 1438 1439 1440 1442 1444 1446 1448 1450 1451 1453
1472 1470 1467 1465 1462 1459 1457 1454 1452 1449 1446 1444 1442 1440 1437 1436 1435 1433 1432 1430 1429 1429 1428 1428 1427 1427 1427 1428 1428 1428 1428 1429 1431 1432 1434 1435 1436 1439 1441 1442 1444 1446 1446
1468 1466 1464 1461 1458 1456 1453 1450 1448 1445 1442 1440 1438 1436 1434 1432 1430 1429 1428 1427 1425 1424 1424 1423 1423 1423 1423 1423 1424 1424 1423 1423 1425 1426 1427 1429 1430 1432 1434 1436 1437 1440 1441
1465 1462 1460 1457 1455 1452 1449 1447 1444 1442 1439 1436 1434 1432 1430 1428 1426 1425 1424 1423 1422 1420 1420 1419 1419 1419 1419 1419 1419 1419 1419 1419 1420 1420 1421 1423 1424 1426 1428 1430 1432 1434 1436
1461 1459 1456 1454 1451 1448 1446 1443 1441 1438 1435 1433 1430 1428 1426 1424 1423 1421 1420 1419 1419 1417 1416 1415 1415 1415 1414 1414 1414 1414 1414 1415 1415 1415 1416 1417 1419 1420 1422 1424 1426 1428 1431
1458 1455 1453 1450 1448 1445 1442 1440 1437 1435 1432 1429 1427 1424 1422 1421 1419 1418 1417 1415 1414 1413 1412 1412 1411 1411 1410 1409 1409 1409 1410 1410 1410 1411 1411 1412 1414 1415 1417 1419 1421 1423 1425
1455 1452 1449 1446 1444 1442 1439 1437 1434 1431 1429 1426 1424 1421 1419 1417 1415 1414 1412 1411 1410 1409 1408 1407 1407 1406 1406 1405 1405 1405 1405 1406 1406 1406 1406 1408 1409 1411 1412 1414 1416 1418 1420
1451 1449 1446 1443 1441 1438 1436 1434 1431 1429 1426 1424 1421 1419 1416 1414 1412 1411 1410 1408 1406 1405 1404 1403 1402 1402 1401 1401 1401 1401 1402 1402 1402 1402 1403 1404 1405 1407 1408 1410 1412 1414 1415
1448 1446 1443 1440 1438 1435 1432 1430 1428 1426 1423 1421 1419 1417 1414 1412 1409 1408 1406 1404 1403 1402 1401 1399 1399 1398 1398 1397 1398 1398 1398 1398 1398 1399 1399 1400 1401 1402 1404 1406 1408 1410 1411
1445 1443 1440 1438 1435 1432 1430 1427 1424 1422 1420 1418 1415 1413 1410 1408 1406 1404 1402 1401 1400 1399 1398 1396 1396 1395 1395 1395 1395 1395 1394 1395 1395 1395 1396 1396 1397 1399 1400 1402 1404 1405 1407
1443 1440 1437 1435 1432 1430 1427 1424 1422 1418 1415 1413 1411 1409 1407 1404 1402 1401 1399 1398 1396 1395 1394 1394 1393 1393 1392 1392 1391 1391 1391 1391 1392 1392 1392 1393 1394 1395 1396 1398 1400 1401 1403
1440 1437 1435 1432 1429 1427 1424 1422 1419 1416 1414 1411 1408 1406 1404 1402 1400 1398 1396 1395 1393 1392 1391 1391 1390 1390 1389 1389 1388 1388 1388 1388 1388 1388 1389 1389 1390 1391 1392 1394 1396 1397 1399
1437 1435 1432 1430 1427 1424 1422 1419 1417 1414 1411 1409 1406 1404 1401 1399 1396 1395 1394 1392 1391 1390 1389 1388 1387 1386 1386 1385 1385 1384 1384 1384 1384 1384 1385 1385 1386 1387 1388 1390 1392 1393 1395
1435 1432 1430 1427 1425 1422 1419 1417 1414 1412 1409 1407 1404 1402 1400 1398 1395 1393 1391 1390 1388 1387 1386 1385 1383 1383 1382 1381 1381 1380 1380 1380 1380 1380 1381 1381 1382 1383 1385 1386 1388 1389 1391
1432 1430 1427 1425 1422 1420 1417 1415 1412 1410 1407 1404 1402 1400 1398 1396 1393 1391 1389 1387 1386 1384 1383 1382 1380 1379 1378 1377 1377 1376 1375 1375 1375 1376 1376 1377 1378 1379 1380 1382 1383 1385 1386
1430 1427 1425 1422 1420 1417 1415 1412 1410 1407 1405 1402 1400 1398 1395 1393 1391 1389 1387 1385 1383 1381 1380 1378 1377 1376 1375 1374 1373 1372 1371 1371 1371 1371 1372 1372 1373 1375 1376 1378 1379 1381 1382
1427 1425 1423 1420 1417 1415 1412 1410 1407 1405 1403 1400 1398 1395 1393 1391 1389 1387 1385 1383 1380 1379 1377 1375 1374 1372 1371 1370 1369 1368 1367 1367 1366 1366 1367 1368 1369 1370 1372 1373 1375 1376 1377
1425 1423 1420 1418 1415 1413 1410 1408 1405 1403 1400 1398 1395 1393 1391 1388 1386 1384 1382 1380 1378 1376 1374 1372 1370 1369 1367 1366 1365 1364 1363 1362 1362 1362 1362 1363 1364 1366 1367 1368 1370 1371 1373
1423 1420 1418 1415 1413 1410 1408 1405 1403 1400 1398 1395 1393 1390 1388 1385 1383 1381 1379 1377 1375 1373 1371 1369 1367 1365 1364 1362 1361 1360 1359 1358 1358 1358 1359 1359 1360 1361 1362 1364 1365 1367 1368